Location: Erba
(45.8000°N, 9.2500°E)
Time: 09:58:37
(UTC+01:00)

ISS - Pass Details

Date: 21 February 2019
Orbit: 403 x 411 km, 51.6° (Epoch: 17 February)

Event Time Altitude Azimuth Distance (km) Brightness Sun altitude
Rises 06:37:55 0° 191° (S) 2,304 0.0 -7.4°
Reaches altitude 10° 06:40:52 10° 161° (SSE) 1,450 -0.6 -6.9°
Maximum altitude 06:42:23 13° 133° (SE) 1,299 -0.3 -6.6°
Drops below altitude 10° 06:43:54 10° 105° (ESE) 1,456 0.8 -6.4°
Sets 06:46:53 0° 75° (ENE) 2,321 1.4 -5.9°
